Theta_e
335 334 334 332 331 330 330 332 331 331 331 331 331 329 329 331 329 330 329 326 323 310 318 325 325 326 327 333 334 333 332 333 334 334 334 335 336 336 335 335 336 336 336
333 336 336 335 334 333 332 332 332 331 331 330 330 329 331 332 330 330 330 330 326 325 319 311 312 323 331 328 330 333 333 332 332 331 331 332 333 334 335 335 335 336 336
333 334 336 336 336 335 333 333 334 333 332 331 331 331 331 331 332 331 331 331 331 329 329 326 321 311 325 327 326 324 327 328 327 326 324 323 328 330 332 333 334 333 332
334 336 337 336 336 336 335 334 334 333 333 333 332 331 331 332 333 333 332 332 331 331 331 330 330 326 322 317 311 313 315 316 316 312 310 309 312 317 322 327 329 330 330
337 337 338 339 339 338 336 335 335 336 334 333 333 331 332 332 333 333 333 333 333 331 331 331 331 329 326 326 325 320 313 311 311 310 309 308 308 309 310 311 313 321 328
335 337 338 339 340 340 338 335 336 337 335 336 335 335 335 334 333 333 333 333 334 333 332 331 331 331 328 328 327 326 324 326 325 324 323 319 313 310 308 307 307 308 310
333 335 335 336 339 340 340 336 335 338 335 336 334 336 336 335 335 335 334 334 334 334 333 332 331 331 331 330 330 330 328 328 329 327 327 325 324 321 315 312 309 308 309
332 333 333 333 336 339 341 340 337 337 334 334 335 335 336 335 335 334 333 332 333 333 333 333 332 331 332 331 330 331 331 331 331 330 330 329 328 326 325 324 320 314 310
333 333 333 333 334 337 340 340 339 337 333 333 333 335 334 333 333 332 332 333 333 333 333 333 332 332 331 332 332 331 331 331 331 331 331 331 330 329 328 328 327 325 321
333 333 333 333 334 335 337 339 338 338 336 334 333 335 335 332 332 331 331 332 332 332 332 332 333 332 332 332 332 332 332 332 332 332 331 331 331 331 330 329 329 328 327
334 334 334 335 335 336 338 337 338 338 339 334 334 337 336 336 330 331 332 332 332 332 331 332 333 333 332 331 329 329 331 331 331 332 332 331 330 330 330 329 329 329 328
333 334 334 333 333 329 332 338 337 338 338 336 336 335 335 334 332 332 331 332 331 331 331 331 329 329 327 326 324 322 322 322 322 326 329 331 330 329 329 329 329 328 329
334 335 335 335 333 332 331 335 335 334 337 335 335 334 335 335 334 333 332 332 331 330 330 329 325 324 322 320 319 318 319 320 322 323 326 327 329 329 327 328 328 328 328
337 336 334 334 333 333 333 335 336 336 335 334 336 335 333 334 333 332 332 329 329 329 328 323 323 322 320 318 318 318 319 323 324 323 324 324 325 326 326 325 325 324 325
337 333 331 332 333 335 333 331 335 334 335 334 332 331 331 329 330 329 326 325 322 320 319 317 316 318 318 318 318 318 317 317 317 321 322 321 322 322 323 323 322 321 319
328 331 333 333 333 334 334 334 333 332 332 331 329 326 320 317 315 314 316 316 316 316 317 314 315 315 316 315 315 314 314 314 314 314 314 315 316 317 318 317 316 315 314
335 335 335 334 332 331 331 330 326 326 322 319 315 315 314 315 315 315 314 312 311 312 314 316 313 314 315 315 314 314 312 312 311 310 310 310 311 311 314 315 315 315 315
335 329 328 329 326 323 323 322 322 320 318 317 316 316 315 314 314 313 312 313 313 312 314 316 316 315 313 313 313 312 311 310 309 309 308 307 307 307 310 312 314 315 315
324 323 323 323 323 323 322 319 319 317 317 317 317 316 316 315 315 315 314 314 313 313 314 316 316 314 313 313 312 311 310 308 308 309 308 307 307 307 307 311 314 313 313
322 322 321 320 320 319 319 319 318 318 317 316 316 315 315 314 314 313 313 314 314 314 313 314 313 313 312 311 310 310 310 310 310 309 308 308 308 308 306 307 310 312 313
322 320 320 319 319 318 318 317 316 314 313 312 311 310 309 310 311 312 313 313 311 312 312 312 312 311 310 310 309 309 309 308 308 308 309 308 309 309 308 309 308 308 309
319 318 318 317 317 316 313 312 311 308 305 304 304 307 308 307 308 307 306 305 304 304 307 307 307 307 307 307 307 308 307 307 307 307 307 308 309 309 310 311 310 309 307
318 317 316 314 313 312 308 304 302 302 301 302 303 304 306 305 305 305 304 304 304 304 304 304 306 306 306 306 306 306 307 307 307 307 307 307 308 308 309 310 309 309 308
316 315 313 311 310 304 302 301 302 302 301 301 301 302 303 304 304 304 304 305 305 304 302 302 302 302 303 303 303 304 304 305 304 306 308 307 307 308 309 308 308 308 307
314 312 309 305 302 302 302 302 302 303 302 301 301 301 301 301 301 302 303 303 303 303 301 302 302 302 302 302 303 303 305 306 306 306 307 307 307 307 308 309 308 306 307
310 308 305 302 302 302 302 302 303 304 302 303 302 301 301 301 301 301 302 303 303 302 302 302 303 303 303 304 303 302 304 304 305 305 305 305 307 306 307 308 308 308 306
Wind_Speed
9 11 12 11 10 10 11 10 10 9 10 9 8 5 4 5 3 2 3 3 2 2 7 7 8 8 8 8 8 9 9 10 10 10 10 11 12 12 13 13 13 14 14
13 12 12 12 11 12 11 11 12 10 11 11 11 9 7 6 5 5 3 3 1 2 1 3 7 9 10 10 10 11 11 10 10 10 11 11 12 12 12 12 12 11 11
14 13 13 14 13 13 14 12 12 12 11 11 14 13 12 11 9 8 7 6 4 2 1 1 2 4 11 13 14 13 13 13 13 13 13 13 14 14 15 15 14 13 13
16 15 15 14 13 14 16 15 13 12 14 14 14 15 15 15 12 13 12 11 10 7 6 4 3 4 5 6 9 13 14 15 14 13 14 14 16 17 18 18 19 19 17
18 19 19 15 15 17 17 18 18 18 15 14 15 15 16 17 17 16 17 16 15 14 11 9 7 8 9 8 8 8 9 10 10 11 11 11 12 15 16 18 20 20 20
21 21 22 20 17 18 19 18 20 17 18 16 16 17 19 19 19 19 18 18 19 19 18 15 12 10 10 10 9 9 9 8 7 8 8 7 9 10 12 14 15 18 21
25 25 24 23 23 23 20 21 23 23 18 24 26 20 22 22 22 22 22 24 24 24 22 20 18 15 13 13 12 11 10 10 9 9 8 8 9 11 11 11 13 15 17
27 28 27 25 25 26 26 27 27 27 21 23 32 25 19 19 21 23 26 26 27 25 26 25 23 21 19 18 18 16 16 14 13 12 11 10 10 10 11 12 12 14 16
29 30 29 29 28 29 31 32 32 26 22 22 29 24 10 14 14 14 16 20 23 24 25 27 27 27 25 24 22 23 23 22 22 21 20 18 16 15 15 14 15 16 16
31 29 30 32 33 33 35 35 34 34 32 29 28 33 33 23 18 19 23 15 14 15 15 18 24 27 26 26 27 24 26 25 28 30 27 25 22 22 22 21 20 19 18
31 29 29 32 31 33 38 39 36 40 31 27 26 30 27 32 38 33 26 23 14 12 13 13 15 17 17 15 15 16 18 19 18 24 27 27 23 26 27 26 25 24 23
31 30 28 27 27 28 35 40 36 37 36 28 26 28 31 32 33 35 32 26 23 17 14 11 11 13 14 13 13 12 15 16 18 21 24 28 28 30 29 29 29 28 28
34 30 28 25 24 35 34 40 34 41 26 19 21 27 33 29 34 32 34 26 18 13 13 15 12 11 7 9 12 13 14 16 18 20 22 25 27 27 28 29 31 29 29
18 18 18 25 27 19 25 31 33 17 14 15 17 17 9 19 27 26 18 12 8 9 9 7 7 11 12 12 11 10 12 14 14 16 18 20 23 25 24 25 25 26 26
15 24 23 17 14 15 17 21 15 13 10 6 8 4 1 4 4 5 7 8 6 3 6 11 7 11 13 11 14 14 14 13 14 15 17 18 18 18 19 21 22 20 20
14 12 9 8 7 7 10 7 2 3 2 3 8 10 14 12 13 13 13 11 8 4 3 7 11 12 14 16 16 17 18 18 20 20 20 21 21 23 23 23 23 22 22
7 7 5 6 9 10 15 17 20 20 19 17 16 13 13 11 9 7 5 3 2 6 7 10 12 12 12 13 16 17 18 18 21 22 22 24 26 28 29 28 28 28 28
9 14 14 16 19 17 14 17 15 14 9 10 8 7 7 5 4 3 3 5 7 8 8 10 10 9 12 14 16 17 16 16 18 18 19 21 25 27 29 30 32 33 32
14 16 16 15 14 14 13 15 10 10 9 7 6 4 3 3 4 5 6 8 9 9 8 8 9 10 13 14 15 16 18 20 17 18 20 20 19 20 24 30 29 31 36
16 14 14 12 13 12 11 10 7 7 6 7 8 9 9 9 9 9 7 7 8 7 8 8 9 10 11 13 16 14 16 16 18 18 19 19 19 19 18 20 28 30 29
15 15 14 12 10 8 9 7 7 8 8 9 10 9 9 9 8 7 6 8 9 9 10 10 11 11 13 14 16 16 17 18 18 18 17 15 15 15 17 17 19 27 30
16 10 8 7 5 8 9 9 9 9 9 8 8 9 8 8 10 10 11 11 12 13 11 11 13 15 15 16 16 17 19 20 20 16 16 18 17 16 15 13 14 15 21
10 10 9 8 9 10 11 10 10 11 11 12 10 9 9 9 9 10 11 12 12 13 14 14 12 14 16 16 18 19 19 20 22 22 19 20 15 17 14 13 16 15 16
8 9 9 10 8 12 12 13 14 16 16 15 12 10 9 9 9 9 10 11 11 12 14 15 17 20 20 21 21 21 22 21 23 19 17 19 15 16 14 15 16 17 17
8 9 10 11 12 15 15 15 16 17 19 19 17 15 14 13 13 12 12 13 14 15 17 19 19 19 19 19 19 18 17 19 21 19 17 19 18 19 18 14 13 12 11
9 10 12 14 14 15 15 14 14 13 17 14 14 16 17 17 16 16 16 15 17 22 22 21 17 15 16 16 18 18 18 20 21 21 13 15 15 15 14 10 8 6 9
Wind_Direction
198 204 213 214 211 214 217 228 247 261 251 256 277 256 264 300 274 321 358 2 39 198 217 214 204 205 209 205 200 204 203 198 194 200 205 208 208 209 212 220 222 224 225
218 218 220 224 230 232 231 233 239 246 259 246 248 249 253 266 263 268 293 347 14 51 105 229 232 213 214 214 214 212 211 218 221 220 219 218 219 219 221 222 220 220 223
219 225 232 241 248 246 238 242 245 251 248 253 246 247 258 264 268 264 265 270 280 270 271 287 257 217 212 211 216 220 225 231 234 240 242 240 236 232 229 228 228 230 234
227 234 242 247 253 251 251 250 253 255 249 253 258 251 256 258 275 264 259 256 256 259 259 264 277 246 237 233 225 223 225 230 237 241 242 240 238 237 237 236 236 238 237
240 242 247 253 259 260 263 258 254 256 254 254 260 260 255 258 267 269 259 261 259 256 255 252 251 247 237 239 231 225 222 222 222 227 233 237 241 242 241 241 242 241 241
245 248 253 255 253 259 261 262 255 261 258 265 260 256 262 264 262 264 262 261 262 254 251 250 248 248 233 232 233 237 229 227 225 222 225 230 237 240 239 237 239 242 240
250 251 254 256 252 252 256 256 252 258 264 265 268 262 258 259 261 262 261 262 261 249 246 245 243 241 239 230 229 232 225 225 227 228 232 231 239 239 242 245 242 241 240
252 252 252 256 257 254 253 254 251 251 265 255 260 265 265 262 263 268 263 258 251 253 242 243 243 243 239 238 238 240 244 241 246 248 245 245 246 245 246 248 251 249 248
257 254 255 257 259 255 254 257 261 249 260 276 273 255 240 246 247 268 268 257 254 253 247 246 243 244 245 244 246 246 246 248 248 249 250 248 251 253 256 259 255 252 252
257 254 256 257 261 262 257 258 266 263 254 272 269 257 249 250 251 262 256 264 254 254 252 250 245 245 249 247 254 255 252 256 254 250 250 255 256 255 255 255 256 256 255
254 255 254 256 260 271 275 270 267 268 266 269 267 265 273 263 242 248 244 237 247 263 258 243 244 244 244 244 251 249 254 257 261 252 251 249 251 253 255 256 258 258 256
260 256 254 257 257 267 273 274 274 272 267 258 262 270 274 256 238 232 231 235 233 250 253 233 228 240 245 246 255 277 280 272 268 261 254 250 252 253 251 252 254 255 253
268 269 269 273 280 281 263 267 277 293 255 273 281 277 269 258 252 240 234 221 221 235 239 235 217 227 252 273 274 274 273 266 262 257 254 254 253 253 255 253 252 255 254
271 251 262 286 300 282 280 275 266 269 299 302 282 246 252 255 248 234 202 208 196 218 217 218 245 281 285 276 269 276 275 271 268 263 260 259 256 254 254 257 255 253 251
275 298 302 307 293 262 273 288 286 294 300 270 290 297 353 9 36 66 93 86 65 22 328 297 281 253 254 267 277 277 274 272 273 272 267 266 263 259 255 253 251 250 250
314 324 340 333 332 324 301 284 50 44 327 108 69 69 69 60 51 44 45 45 40 19 287 281 277 268 268 274 277 280 282 283 281 277 275 269 266 261 256 252 253 251 247
6 6 7 84 75 83 82 85 78 79 77 74 73 63 54 51 50 54 35 16 318 274 277 271 277 278 278 283 283 284 281 280 278 279 278 278 274 265 260 256 254 250 248
70 90 84 88 90 89 86 82 83 79 75 72 62 50 36 36 11 344 321 310 303 308 294 281 269 282 287 291 294 297 298 295 292 289 288 287 279 272 266 262 255 253 252
96 100 99 93 94 90 93 85 79 82 85 77 69 57 26 2 336 316 311 301 303 302 289 287 298 299 296 297 301 306 303 299 301 304 303 292 285 279 271 262 263 261 257
101 104 94 83 89 86 81 77 69 59 42 23 11 358 352 343 339 333 333 333 335 338 329 324 308 302 301 298 308 311 305 302 299 301 299 298 283 282 278 271 256 259 258
94 86 84 85 85 80 65 48 28 13 3 354 351 352 353 354 347 345 351 335 338 340 327 324 312 313 310 311 306 301 303 303 306 310 308 304 292 285 290 286 278 260 261
93 87 79 72 63 66 41 19 12 12 15 22 32 37 30 17 16 10 5 358 350 346 346 337 325 319 317 312 307 304 304 304 304 307 300 304 296 289 282 266 272 280 271
94 88 86 78 65 50 35 33 38 44 42 40 33 23 22 6 357 351 348 348 346 341 338 333 326 320 312 309 305 303 297 292 292 294 293 295 301 288 283 274 272 283 283
95 93 81 63 55 70 59 59 56 54 45 38 31 28 27 18 7 359 356 354 353 351 337 331 321 318 312 308 303 299 297 296 298 297 288 284 291 289 282 284 280 285 288
108 104 86 86 80 83 77 68 61 53 48 47 49 48 46 38 32 24 20 10 1 350 341 332 320 311 307 303 302 304 297 294 297 296 294 289 291 282 280 279 283 293 289
104 90 95 92 89 85 75 62 55 50 46 47 47 46 41 35 27 20 9 4 356 350 347 348 344 338 330 319 316 304 294 288 289 292 294 290 289 299 292 278 263 277 315